Location: Harbor View
(36.2448°N, 86.5797°W)
Time: 08:16:52
(UTC+00:00)

NOSS 3-3 (C) - Pass Details

Date: 29 October 2020
Orbit: 827 x 1385 km, 63.5° (Epoch: 29 November)

Event Time Altitude Azimuth Distance (km) Brightness Sun altitude
Rises 23:21:51 0° 200° (SSW) 3,362 7.3 -6.5°
Reaches altitude 10° 23:24:14 10° 197° (SSW) 2,455 6.5 -7.0°
Maximum altitude 23:29:46 62° 117° (ESE) 995 3.9 -8.1°
Drops below altitude 10° 23:35:55 10° 38° (NE) 2,717 5.9 -9.3°
Sets 23:38:40 0° 35° (NE) 3,750 6.6 -9.9°
Enters shadow 23:38:42 - 35° (NE) 3,760 6.6 -9.9°
